Flag for Germany Weather past 2 weeks in Erlangen, Bavaria, Germany

Now
45 °F

Light rain. Mostly cloudy.


Feels Like: 40 °F
Forecast: 40 / 54 °F
Wind: 8 mph from Northwest

Location: Nuernberg

Current Time: Oct 23, 2014 at 8:11:30 AM

Latest Report: Oct 23, 2014 at 7:20 AM


Visibility: N/A

Pressure: 30.09 "Hg

Humidity: 87%

Dew point: 41 °F

Location of ErlangenLocation

Historic Weather in Erlangen — Graph

°F

Erlangen temperature yesterday

Maximum temperature yesterday: 46 °F (at 12:20 AM)
Minimum temperature yesterday: 43 °F (at 6:50 AM)
Average temperature yesterday: 44 °F

Past Weeks' High & Low Weather Summary

 TemperatureHumidityPressure
High77 °F (Oct 9, 2:20 PM)100% (Oct 8, 7:50 AM)30.24 "Hg (Oct 8, 7:50 AM)
Low43 °F (Oct 18, 6:50 AM)44% (Oct 9, 3:20 PM)29.56 "Hg (Oct 21, 8:20 PM)
Average57 °F89%29.93 "Hg
* Reported Oct 8 6:20 AM — Oct 23 6:50 AM, Erlangen, Weather by CustomWeather, © 2014

Note: Actual official high and low records may vary slightly from our data, if they occured in-between our weather recording intervals... More about our weather records

Advertising

Erlangen weather history for previous 24 hours

 ConditionsComfort  
Time TempWeatherWind HumidityBarometerVisibility
6:50 AM
Oct 23
45 °FLight rain. Partly cloudy.9 mph93%30.09 "HgN/A
6:20 AM45 °FLight rain. Partly cloudy.6 mph93%30.09 "HgN/A
5:50 AM45 °FLight rain. Passing clouds.12 mph87%30.07 "HgN/A
5:20 AM45 °FOvercast.10 mph93%30.07 "HgN/A
4:50 AM45 °FOvercast.12 mph93%30.07 "HgN/A
4:20 AM45 °FOvercast.12 mph93%30.04 "HgN/A
3:50 AM45 °FDrizzle. Overcast.10 mph93%30.04 "HgN/A
3:20 AM46 °FOvercast.12 mph87%30.04 "HgN/A
2:50 AM46 °FDrizzle. Overcast.13 mph87%30.01 "HgN/A
2:20 AM46 °FOvercast.13 mph87%30.01 "HgN/A
1:50 AM46 °FOvercast.14 mph87%30.01 "HgN/A
1:20 AM46 °FDrizzle. Overcast.13 mph87%29.98 "HgN/A
12:50 AM46 °FDrizzle. Overcast.15 mph87%29.98 "Hg4 mi
12:20 AM46 °FDrizzle. Overcast.14 mph87%29.98 "Hg4 mi
11:50 PM
Oct 22
46 °FDrizzle. Overcast.13 mph87%29.98 "Hg4 mi
11:20 PM46 °FOvercast.14 mph87%29.95 "HgN/A
10:50 PM46 °FLight rain. Overcast.14 mph87%29.95 "HgN/A
10:20 PM45 °FLight rain. Passing clouds.16 mph93%29.95 "HgN/A
9:50 PM45 °FLight rain. Passing clouds.14 mph100%29.92 "Hg4 mi
9:20 PM45 °FLight rain. Passing clouds.14 mph93%29.92 "Hg5 mi
8:50 PM45 °FLight rain. Passing clouds.15 mph93%29.92 "Hg6 mi
8:20 PM45 °FLight rain. Passing clouds.12 mph93%29.92 "HgN/A
7:50 PM45 °FLight rain. Passing clouds.14 mph93%29.89 "HgN/A
7:20 PM45 °FLight rain. Passing clouds.10 mph93%29.92 "HgN/A
6:50 PM45 °FLight rain. Partly sunny.15 mph93%29.89 "HgN/A
6:20 PM43 °FRain. Partly sunny.17 mph93%29.89 "Hg6 mi
5:50 PM43 °FLight rain. Partly sunny.20 mph93%29.89 "HgN/A
5:20 PM43 °FLight rain. Partly sunny.20 mph93%29.89 "HgN/A
4:20 PM43 °FLight rain. Partly sunny.22 mph93%29.89 "HgN/A
3:50 PM45 °FLight rain. Partly sunny.23 mph87%29.89 "HgN/A
3:20 PM45 °FLight rain. Partly sunny.23 mph81%29.92 "HgN/A
2:50 PM45 °FLight rain. Broken clouds.24 mph81%29.92 "HgN/A
2:20 PM45 °FLight rain. Partly sunny.23 mph81%29.92 "HgN/A
1:50 PM45 °FLight rain. Partly sunny.23 mph81%29.92 "HgN/A
1:20 PM45 °FDrizzle. Broken clouds.23 mph81%29.92 "HgN/A
12:50 PM45 °FBroken clouds.24 mph87%29.92 "HgN/A
12:20 PM45 °FPartly sunny.21 mph81%29.92 "HgN/A
11:50 AM45 °FLight rain. Partly sunny.22 mph81%29.92 "HgN/A
11:20 AM45 °FBroken clouds.25 mph81%29.92 "HgN/A
10:50 AM45 °FBroken clouds.16 mph81%29.92 "HgN/A
10:20 AM43 °FBroken clouds.16 mph87%29.92 "HgN/A
9:50 AM43 °FBroken clouds.16 mph87%29.92 "HgN/A
9:20 AM43 °FBroken clouds.15 mph87%29.89 "HgN/A
8:50 AM43 °FLight rain. Broken clouds.18 mph87%29.89 "HgN/A
8:20 AM43 °FLight rain. Partly cloudy.22 mph87%29.86 "HgN/A
Weather by CustomWeather, © 2014

See weather overviewHow to use our weather pages